Home > Weather > Hirtshals > Past weeks

Flag for Denmark Past Weather in Hirtshals, Denmark — Yesterday and Last 2 Weeks

Now
60 °F

Cool.


Feels Like: 57 °F
Forecast: 58 / 65 °F
Wind: 16 mph from West

Location: Aalborg

Current Time: Aug 29, 2016 at 10:02:24 PM

Latest Report: Aug 29, 2016 at 9:00 PM


Visibility: 19 mi

Pressure: 29.97 "Hg

Humidity: 78%

Dew Point: 53 °F

Location of HirtshalsLocation

Past Weather in Hirtshals — Graph

°F

Hirtshals Temperature Yesterday

Maximum temperature yesterday: 66 °F (at 10:00 PM)
Minimum temperature yesterday: 53 °F (at 12:00 AM)
Average temperature yesterday: 60 °F

High & Low Weather Summary for the Past Weeks

 TemperatureHumidityPressure
High84 °F (Aug 25, 5:00 PM)99% (Aug 23, 6:00 AM)30.30 "Hg (Aug 23, 6:00 AM)
Low49 °F (Aug 17, 5:00 AM)45% (Aug 16, 5:00 PM)29.67 "Hg (Aug 29, 4:00 AM)
Average63 °F82%30.02 "Hg
* Reported Aug 14 8:00 PM — Aug 29 8:00 PM, Hirtshals, Weather by CustomWeather, © 2016

Note: Actual official high and low records may vary slightly from our data, if they occured in-between our weather recording intervals... More about our weather records

Advertising

Hirtshals Weather History for the Previous 24 Hours

Scroll right to see more
 ConditionsComfort  
Time TempWeatherWind HumidityBarometerVisibility
8:00 PM
Mon, Aug 29
61 °FScattered clouds.16 mph78%29.95 "Hg16 mi
7:00 PM62 °FMild.22 mph77%29.93 "Hg19 mi
6:00 PM64 °FMild.20 mph73%29.92 "Hg18 mi
5:00 PM65 °FScattered clouds.18 mph70%29.90 "Hg16 mi
4:00 PM66 °FMild.14 mph69%29.89 "Hg22 mi
3:00 PM66 °FMild.14 mph68%29.88 "Hg22 mi
2:00 PM65 °FScattered clouds.15 mph65%29.87 "Hg19 mi
1:00 PM65 °FMild.13 mph66%29.85 "Hg22 mi
12:00 PM63 °FMild.16 mph71%29.83 "Hg22 mi
11:00 AM61 °FPartly sunny.15 mph79%29.82 "Hg19 mi
10:00 AM59 °FCool.12 mph84%29.80 "Hg22 mi
9:00 AM58 °FCool.10 mph92%29.78 "Hg18 mi
7:00 AM59 °FCool.10 mph92%29.72 "Hg11 mi
6:00 AM60 °FCool.8 mph92%29.70 "Hg22 mi
5:00 AM62 °FSprinkles. Low clouds.8 mph95%29.67 "Hg2 mi
4:00 AM63 °FMild.13 mph90%29.67 "Hg22 mi
3:00 AM64 °FMild.12 mph89%29.68 "Hg22 mi
2:00 AM64 °FFog.13 mph91%29.70 "Hg5 mi
1:00 AM66 °FMild.8 mph95%29.71 "Hg9 mi
12:00 AM66 °FMild.8 mph93%29.72 "Hg16 mi
11:00 PM
Sun, Aug 28
66 °FSprinkles. Overcast.8 mph95%29.73 "Hg6 mi
10:00 PM66 °FRain showers. Overcast.8 mph94%29.74 "Hg8 mi
Weather by CustomWeather, © 2016

See weather overviewHow to use our weather pages